DW7061 Weather Reports


Display with metric or nautical units.
time (UTC)temp
F
wind
direction
speed
MPH
gust
MPH
rain 1hr
in
rain 24hr
in
rain mn
in
humidity
%
barometer
mb
20260831213538 71 0.0 0.0 0.00 0.00 0.00 79 1018.8
20260831212517 71 0.0 0.0 0.00 0.00 0.00 78 1018.7
20260831211518 72 0.0 0.0 0.00 0.00 0.00 77 1018.7
20260831210517 73 0.0 0.0 0.00 0.00 0.00 73 1018.7
20260831205517 73 0.0 0.0 0.00 0.00 0.00 73 1018.8
20260831204537 74 0.0 1.0 0.00 0.00 0.00 70 1018.9
20260831203558 74 0.0 0.0 0.00 0.00 0.00 72 1018.8
20260831202518 73 0.0 1.0 0.00 0.00 0.00 68 1018.8
20260831201538 74 0.0 0.0 0.00 0.00 0.00 71 1018.8
20260831200539 75 0.0 0.0 0.00 0.00 0.00 68 1019.0
20260831195517 74 0.0 1.0 0.00 0.00 0.00 70 1019.1
20260831194517 74 0.0 2.0 0.00 0.00 0.00 69 1019.2
20260831193538 74 0.0 2.0 0.00 0.00 0.00 69 1019.3
20260831192517 74 0.0 2.0 0.00 0.00 0.00 69 1019.2
20260831191518 75 0.0 3.0 0.00 0.00 0.00 70 1019.2
20260831190518 74 0.0 1.0 0.00 0.00 0.00 70 1019.7
20260831185518 75 0.0 1.0 0.00 0.00 0.00 68 1019.9
20260831184517 75 0.0 3.0 0.00 0.00 0.00 69 1019.8
20260831183518 74 0.0 1.0 0.00 0.00 0.00 70 1019.7
20260831182517 74 0.0 1.0 0.00 0.00 0.00 70 1019.8
20260831181557 75 0.0 2.0 0.00 0.00 0.00 68 1019.8
20260831180539 75 0.0 1.0 0.00 0.00 0.00 67 1019.7
20260831175517 75 0.0 1.0 0.00 0.00 0.00 68 1019.8
20260831174518 75 0.0 1.0 0.00 0.00 0.00 67 1020.1
20260831173518 75 0.0 1.0 0.00 0.00 0.00 66 1020.2
20260831172517 75 0.0 0.0 0.00 0.00 0.00 70 1020.3
20260831171515 74 0.0 1.0 0.00 0.00 0.00 67 1020.5
20260831170517 74 0.0 0.0 0.00 0.00 0.00 69 1020.6
20260831165518 74 0.0 1.0 0.00 0.00 0.00 65 1020.7
20260831164517 73 0.0 1.0 0.00 0.00 0.00 69 1020.7
20260831163518 72 0.0 2.0 0.00 0.00 0.00 73 1020.8
20260831162559 72 0.0 0.0 0.00 0.00 0.00 72 1021.0
20260831161517 71 0.0 0.0 0.00 0.00 0.00 74 1021.0
20260831160517 70 0.0 1.0 0.00 0.00 0.00 74 1021.1
20260831155538 70 0.0 1.0 0.00 0.00 0.00 78 1021.2
20260831154538 69 0.0 0.0 0.00 0.00 0.00 78 1021.0
20260831153517 69 0.0 1.0 0.00 0.00 0.00 79 1021.1
20260831152517 69 0.0 0.0 0.00 0.00 0.00 79 1021.0
20260831151518 69 0.0 0.0 0.00 0.00 0.00 81 1021.0
20260831150537 69 0.0 0.0 0.00 0.00 0.00 79 1021.2
20260831145517 68 0.0 0.0 0.00 0.00 0.00 82 1021.0
20260831144518 68 0.0 0.0 0.00 0.00 0.00 84 1020.9
20260831143537 67 0.0 0.0 0.00 0.00 0.00 83 1020.8
20260831142517 67 0.0 0.0 0.00 0.00 0.00 86 1020.8
20260831141517 66 0.0 0.0 0.00 0.00 0.00 85 1020.8
20260831140537 66 0.0 0.0 0.00 0.00 0.00 89 1020.8
20260831135539 65 0.0 0.0 0.00 0.00 0.00 89 1020.7
20260831134517 64 0.0 0.0 0.00 0.00 0.00 90 1020.8
20260831133517 64 0.0 0.0 0.00 0.00 0.00 92 1020.5
20260831132517 64 0.0 0.0 0.00 0.00 0.00 92 1020.7
20260831131517 63 0.0 0.0 0.00 0.00 0.00 93 1020.7
20260831130517 63 0.0 0.0 0.00 0.00 0.00 93 1020.8
20260831125517 63 0.0 0.0 0.00 0.00 0.00 94 1020.7
20260831124517 62 0.0 0.0 0.00 0.00 0.00 95 1020.7
20260831123518 62 0.0 0.0 0.00 0.00 0.00 95 1020.6
20260831122517 62 0.0 0.0 0.00 0.00 0.00 96 1020.5
20260831121518 61 0.0 0.0 0.00 0.00 0.00 96 1020.4
20260831120517 61 0.0 0.0 0.00 0.00 0.00 96 1020.4
20260831115517 60 0.0 0.0 0.00 0.00 0.00 96 1020.2
20260831114517 60 0.0 0.0 0.00 0.00 0.00 96 1020.1
20260831113518 60 0.0 0.0 0.00 0.00 0.00 96 1020.0
20260831112537 60 0.0 0.0 0.00 0.00 0.00 96 1020.0
20260831111537 59 0.0 0.0 0.00 0.00 0.00 96 1019.8
20260831110517 59 0.0 0.0 0.00 0.00 0.00 96 1019.7
20260831105538 59 0.0 0.0 0.00 0.00 0.00 96 1019.6
20260831104518 59 0.0 0.0 0.00 0.00 0.00 96 1019.5
20260831103517 59 0.0 0.0 0.00 0.00 0.00 96 1019.4
20260831102517 59 0.0 0.0 0.00 0.00 0.00 96 1019.3
20260831101517 59 0.0 0.0 0.00 0.00 0.00 96 1019.4
20260831100518 59 0.0 0.0 0.00 0.00 0.00 95 1019.4
20260831095517 59 0.0 0.0 0.00 0.00 0.00 95 1019.5
20260831094518 59 0.0 0.0 0.00 0.00 0.00 95 1019.5
20260831093517 59 0.0 0.0 0.00 0.00 0.00 95 1019.5
20260831092517 59 0.0 0.0 0.00 0.00 0.00 95 1019.3
20260831091518 59 0.0 0.0 0.00 0.00 0.00 95 1019.3
20260831090517 59 0.0 0.0 0.00 0.00 0.00 95 1019.0
20260831085517 59 0.0 0.0 0.00 0.00 0.00 95 1019.0
20260831084517 60 0.0 0.0 0.00 0.00 0.00 95 1019.0
20260831083520 60 0.0 0.0 0.00 0.00 0.00 95 1019.1
20260831082517 60 0.0 0.0 0.00 0.00 0.00 95 1019.1
20260831081518 60 0.0 0.0 0.00 0.00 0.00 95 1019.1
20260831080517 60 0.0 0.0 0.00 0.00 0.00 95 1019.1
20260831075537 60 0.0 0.0 0.00 0.00 0.00 95 1019.0
20260831074517 60 0.0 0.0 0.00 0.00 0.00 95 1019.0
20260831073518 60 0.0 0.0 0.00 0.00 0.00 95 1019.0
20260831072517 60 0.0 0.0 0.00 0.00 0.00 94 1019.0
20260831071517 61 0.0 0.0 0.00 0.00 0.00 95 1018.9
20260831070517 61 0.0 0.0 0.00 0.00 0.00 94 1018.7
20260831065517 61 0.0 0.0 0.00 0.00 0.00 94 1018.7
20260831064517 61 0.0 0.0 0.00 0.00 0.00 94 1018.7
20260831063518 61 0.0 0.0 0.00 0.00 0.00 94 1018.7
20260831062517 61 0.0 0.0 0.00 0.00 0.00 93 1018.7
20260831061518 61 0.0 0.0 0.00 0.00 0.00 93 1018.7
20260831060517 62 0.0 0.0 0.00 0.00 0.00 93 1018.8
20260831055517 62 0.0 0.0 0.00 0.00 0.00 93 1018.7
20260831054518 62 0.0 0.0 0.00 0.00 0.00 93 1018.7
20260831053517 62 0.0 0.0 0.00 0.00 0.00 92 1018.6
20260831052517 62 0.0 0.0 0.00 0.00 0.00 92 1018.5
20260831051538 62 0.0 0.0 0.00 0.00 0.00 92 1018.6
20260831050517 62 0.0 0.0 0.00 0.00 0.00 92 1018.5
20260831045517 62 0.0 0.0 0.00 0.00 0.00 92 1018.5
20260831044538 63 0.0 0.0 0.00 0.00 0.00 92 1018.5
20260831043517 63 0.0 0.0 0.00 0.00 0.00 92 1018.5
20260831042517 63 0.0 0.0 0.00 0.00 0.00 91 1018.4
20260831041517 63 0.0 0.0 0.00 0.00 0.00 91 1018.4
20260831040517 64 0.0 0.0 0.00 0.00 0.00 91 1018.2
20260831035516 64 0.0 0.0 0.00 0.00 0.00 90 1018.2
20260831034536 64 0.0 0.0 0.00 0.00 0.00 89 1018.1
20260831033537 65 0.0 0.0 0.00 0.00 0.00 89 1018.3
20260831032537 65 0.0 0.0 0.00 0.00 0.00 88 1018.2
20260831031516 65 0.0 0.0 0.00 0.00 0.00 88 1018.3
20260831030516 66 0.0 0.0 0.00 0.00 0.00 87 1018.2
20260831025516 66 0.0 1.0 0.00 0.00 0.00 87 1018.3
20260831024516 66 0.0 2.0 0.00 0.00 0.00 87 1018.4
20260831023517 66 0.0 1.0 0.00 0.00 0.00 87 1018.3
20260831022537 66 0.0 2.0 0.00 0.00 0.00 87 1018.0
20260831021516 66 0.0 0.0 0.00 0.00 0.00 88 1018.2
20260831020516 66 0.0 1.0 0.00 0.00 0.00 88 1018.2
20260831015516 67 0.0 1.0 0.00 0.00 0.00 88 1018.3
20260831014516 67 0.0 0.0 0.00 0.00 0.00 89 1018.3
20260831013537 67 0.0 0.0 0.00 0.00 0.00 90 1018.0
20260831012516 68 0.0 0.0 0.00 0.00 0.00 92 1018.0
20260831011536 68 0.0 0.0 0.00 0.00 0.00 92 1017.9
20260831010537 68 0.0 0.0 0.00 0.00 0.00 92 1017.8
20260831005516 68 0.0 0.0 0.00 0.00 0.00 92 1017.5
20260831004516 68 0.0 0.0 0.00 0.00 0.00 91 1017.5
20260831003516 68 0.0 0.0 0.00 0.00 0.00 91 1017.3
20260831002516 68 0.0 0.0 0.00 0.00 0.00 91 1017.2
20260831001516 68 0.0 0.0 0.00 0.00 0.00 91 1017.0
20260831000516 68 0.0 0.0 0.00 0.00 0.00 91 1017.0
20260830235516 68 0.0 0.0 0.00 0.00 0.00 90 1017.0
20260830234517 69 0.0 0.0 0.00 0.00 0.00 90 1016.9
20260830233516 69 0.0 0.0 0.00 0.00 0.00 90 1016.9
20260830232516 69 0.0 0.0 0.00 0.00 0.00 90 1016.8
20260830231517 69 0.0 0.0 0.00 0.00 0.00 89 1016.7
20260830230536 69 0.0 0.0 0.00 0.00 0.00 89 1016.9
20260830225516 69 0.0 0.0 0.00 0.00 0.00 89 1017.1
20260830224516 69 0.0 0.0 0.00 0.00 0.00 89 1017.0
20260830223516 70 0.0 0.0 0.00 0.00 0.00 88 1017.0
20260830222557 70 0.0 0.0 0.00 0.00 0.00 87 1017.0
20260830221517 70 0.0 0.0 0.00 0.00 0.00 86 1017.0
20260830220516 70 0.0 0.0 0.00 0.00 0.00 86 1017.0
20260830215516 71 0.0 0.0 0.00 0.00 0.00 85 1017.0
20260830214517 71 0.0 0.0 0.00 0.00 0.00 85 1017.1